EW9776 Weather Reports


Display with metric or nautical units.
time (UTC)temp
F
wind
direction
speed
MPH
gust
MPH
rain 1hr
in
rain 24hr
in
rain mn
in
humidity
%
barometer
mb
20260901091536 58 93 2.0 5.0 0.00 0.00 0.00 66 1011.0
20260901090037 57 127 1.0 3.0 0.00 0.00 0.00 67 1010.8
20260901083034 57 131 1.0 2.0 0.00 0.00 0.00 66 1011.1
20260901081651 57 166 2.0 4.0 0.00 0.00 0.00 63 1011.1
20260901080034 58 182 2.0 3.0 0.00 0.00 0.00 61 1011.0
20260901074535 59 183 1.0 3.0 0.00 0.00 0.00 56 1010.8
20260901073033 61 178 2.0 5.0 0.00 0.00 0.00 51 1010.8
20260901071610 62 162 2.0 5.0 0.00 0.00 0.00 49 1010.7
20260901070034 62 180 2.0 6.0 0.00 0.00 0.00 48 1010.6
20260901064535 64 213 2.0 6.0 0.00 0.00 0.00 45 1010.6
20260901063035 64 183 5.0 10.0 0.00 0.00 0.00 44 1010.8
20260901061536 64 179 4.0 7.0 0.00 0.00 0.00 43 1010.8
20260901060037 61 179 4.0 7.0 0.00 0.00 0.00 52 1010.9
20260901053036 63 172 3.0 7.0 0.00 0.00 0.00 50 1010.9
20260901051533 63 179 0.0 5.0 0.00 0.00 0.00 49 1010.9
20260901050111 63 115 1.0 4.0 0.00 0.00 0.00 50 1010.9
20260901044608 62 196 2.0 4.0 0.00 0.00 0.00 51 1010.9
20260901043029 65 201 1.0 4.0 0.00 0.00 0.00 45 1010.7
20260901040142 69 103 2.0 4.0 0.00 0.00 0.00 40 1010.5
20260901033035 69 184 6.0 10.0 0.00 0.00 0.00 42 1009.9
20260901031533 68 186 5.0 9.0 0.00 0.00 0.00 44 1009.9
20260901030033 65 184 4.0 7.0 0.00 0.00 0.00 49 1009.9
20260901024534 64 182 4.0 6.0 0.00 0.00 0.00 58 1009.8
20260901023142 65 180 3.0 4.0 0.00 0.00 0.00 62 1009.7
20260901020037 71 180 3.0 4.0 0.00 0.00 0.00 53 1009.8
20260901014611 76 180 3.0 5.0 0.00 0.00 0.00 47 1009.8
20260901013150 82 204 2.0 4.0 0.00 0.00 0.00 36 1009.7
20260901011534 83 257 1.0 3.0 0.00 0.00 0.00 33 1009.8
20260901010035 82 294 1.0 4.0 0.00 0.00 0.00 30 1009.8
20260901004535 83 354 2.0 5.0 0.00 0.00 0.00 29 1009.9
20260901003039 83 350 2.0 4.0 0.00 0.00 0.00 27 1010.0
20260901001534 83 348 1.0 5.0 0.00 0.00 0.00 26 1010.2
20260901000034 82 338 2.0 6.0 0.00 0.00 0.00 26 1010.3
20260831234653 82 274 1.0 4.0 0.00 0.00 0.00 26 1010.4
20260831233035 83 32 4.0 10.0 0.00 0.00 0.00 25 1010.5
20260831231642 83 29 2.0 7.0 0.00 0.00 0.00 26 1010.7
20260831230032 83 26 4.0 11.0 0.00 0.00 0.00 26 1010.9
20260831224538 82 30 6.0 12.0 0.00 0.00 0.00 26 1011.1
20260831223109 82 30 6.0 13.0 0.00 0.00 0.00 27 1011.3
20260831221536 81 38 3.0 11.0 0.00 0.00 0.00 28 1011.5
20260831220035 81 34 4.0 11.0 0.00 0.00 0.00 29 1011.7
20260831213034 80 29 2.0 6.0 0.00 0.00 0.00 32 1012.2
20260831211642 79 227 2.0 9.0 0.00 0.00 0.00 33 1012.3
20260831210034 78 306 2.0 8.0 0.00 0.00 0.00 33 1012.5
20260831204534 78 33 4.0 13.0 0.00 0.00 0.00 34 1012.6
20260831200035 77 40 5.0 14.0 0.00 0.00 0.00 34 1013.4
20260831194536 76 40 5.0 15.0 0.00 0.00 0.00 35 1013.6
20260831193035 75 27 7.0 16.0 0.00 0.00 0.00 36 1013.8
20260831191537 75 50 6.0 18.0 0.00 0.00 0.00 36 1014.1
20260831190034 74 32 5.0 14.0 0.00 0.00 0.00 38 1014.3
20260831184532 73 28 6.0 14.0 0.00 0.00 0.00 41 1014.6
20260831183109 71 26 5.0 14.0 0.00 0.00 0.00 50 1014.9
20260831181537 68 351 4.0 9.0 0.00 0.00 0.00 59 1015.3
20260831180035 66 321 4.0 8.0 0.00 0.00 0.00 61 1015.5
20260831174536 65 316 4.0 7.0 0.00 0.00 0.00 62 1015.6
20260831173036 64 305 3.0 7.0 0.00 0.00 0.00 61 1015.7
20260831171533 64 305 1.0 5.0 0.00 0.00 0.00 60 1015.9
20260831164612 64 343 1.0 4.0 0.00 0.00 0.00 61 1016.1
20260831163109 64 4 1.0 4.0 0.00 0.00 0.00 58 1016.2
20260831161535 63 360 1.0 3.0 0.00 0.00 0.00 63 1016.4
20260831160032 62 360 0.0 3.0 0.00 0.00 0.00 66 1016.5
20260831154537 59 360 1.0 3.0 0.00 0.00 0.00 71 1016.5
20260831153033 57 338 1.0 3.0 0.00 0.00 0.00 79 1016.5
20260831151536 53 209 0.0 0.0 0.00 0.00 0.00 86 1016.5
20260831150035 50 180 0.0 0.0 0.00 0.00 0.00 88 1016.4
20260831144535 48 180 0.0 0.0 0.00 0.00 0.00 93 1016.4
20260831143033 47 180 0.0 0.0 0.00 0.00 0.00 93 1016.3
20260831141537 47 180 1.0 3.0 0.00 0.00 0.00 93 1016.2
20260831140036 47 180 2.0 3.0 0.00 0.00 0.00 92 1016.1
20260831134537 47 180 0.0 2.0 0.00 0.00 0.00 92 1016.0
20260831133038 47 180 2.0 3.0 0.00 0.00 0.00 93 1016.1
20260831131533 46 180 2.0 4.0 0.00 0.00 0.00 94 1016.1
20260831130035 46 194 2.0 3.0 0.00 0.00 0.00 94 1016.1
20260831123033 46 180 2.0 4.0 0.00 0.00 0.00 93 1016.0
20260831121532 45 180 2.0 3.0 0.00 0.00 0.00 92 1015.9
20260831120035 46 180 2.0 3.0 0.00 0.00 0.00 91 1016.1
20260831114535 46 180 2.0 3.0 0.00 0.00 0.00 91 1016.1
20260831111531 47 180 1.0 3.0 0.00 0.00 0.00 90 1016.2
20260831110035 47 154 0.0 2.0 0.00 0.00 0.00 89 1016.2
20260831104649 48 180 2.0 3.0 0.00 0.00 0.00 87 1016.2
20260831103034 49 180 0.0 2.0 0.00 0.00 0.00 85 1016.3
20260831101609 49 180 0.0 2.0 0.00 0.00 0.00 83 1016.3
20260831100033 50 180 2.0 3.0 0.00 0.00 0.00 81 1016.4
20260831094537 51 182 2.0 4.0 0.00 0.00 0.00 79 1016.6
20260831093034 51 186 3.0 5.0 0.00 0.00 0.00 79 1016.6